Time,TemperatureF,DewpointF,PressureIn,WindDirection,WindDirectionDegrees,WindSpeedMPH,WindSpeedGustMPH,Humidity,HourlyPrecipIn,Conditions,Clouds,dailyrainin,SoftwareType,DateUTC
2013-06-24 00:01:00,72.8,68.0,29.99,WNW,300,0.0,0.0,85,0.00,RA,,0.00,WeatherDisplay:10.37,2013-06-24 05:01:00,
2013-06-24 00:06:00,72.6,68.2,29.98,ENE,74,1.1,1.1,86,0.00,RA,,0.00,WeatherDisplay:10.37,2013-06-24 05:06:00,
2013-06-24 00:11:00,72.3,67.9,29.98,ESE,109,1.1,1.1,86,0.00,CLR,,0.00,WeatherDisplay:10.37,2013-06-24 05:11:00,
2013-06-24 00:16:00,72.0,67.9,29.97,ESE,108,3.0,3.0,87,0.00,CLR,,0.00,WeatherDisplay:10.37,2013-06-24 05:16:00,
2013-06-24 00:21:00,71.9,67.8,29.96,East,79,1.1,1.1,87,0.00,CLR,,0.00,WeatherDisplay:10.37,2013-06-24 05:21:00,
2013-06-24 00:26:00,71.8,68.1,29.97,NE,45,0.0,0.0,88,0.00,CLR,,0.00,WeatherDisplay:10.37,2013-06-24 05:26:00,
2013-06-24 00:31:00,71.7,68.0,29.97,ENE,60,0.0,0.0,88,0.00,CLR,,0.00,WeatherDisplay:10.37,2013-06-24 05:31:00,
2013-06-24 00:36:00,71.7,68.0,29.98,ENE,60,0.0,0.0,88,0.00,CLR,,0.00,WeatherDisplay:10.37,2013-06-24 05:36:00,
2013-06-24 00:42:00,71.7,68.0,29.98,ENE,60,0.0,0.0,88,0.00,CLR,,0.00,WeatherDisplay:10.37,2013-06-24 05:42:00,
2013-06-24 00:47:00,71.7,68.3,29.98,ENE,60,0.0,0.0,89,0.00,CLR,,0.00,WeatherDisplay:10.37,2013-06-24 05:47:00,
2013-06-24 00:52:00,71.7,68.3,29.98,ENE,60,0.0,0.0,89,0.00,CLR,,0.00,WeatherDisplay:10.37,2013-06-24 05:52:00,
2013-06-24 00:57:00,71.7,68.3,29.98,ENE,64,0.0,0.0,89,0.00,CLR,,0.00,WeatherDisplay:10.37,2013-06-24 05:57:00,
2013-06-24 01:02:00,71.7,68.3,29.98,ENE,64,0.0,0.0,89,0.00,CLR,,0.00,WeatherDisplay:10.37,2013-06-24 06:02:00,
2013-06-24 01:08:00,71.7,68.3,29.98,ENE,64,0.0,0.0,89,0.00,CLR,,0.00,WeatherDisplay:10.37,2013-06-24 06:08:00,
2013-06-24 01:13:00,71.6,68.2,29.97,ENE,64,0.0,0.0,89,0.00,CLR,,0.00,WeatherDisplay:10.37,2013-06-24 06:13:00,
2013-06-24 01:18:00,71.6,68.5,29.98,ENE,74,0.0,0.0,90,0.00,CLR,,0.00,WeatherDisplay:10.37,2013-06-24 06:18:00,
2013-06-24 01:23:00,71.6,68.5,29.98,ENE,74,0.0,0.0,90,0.00,CLR,,0.00,WeatherDisplay:10.37,2013-06-24 06:23:00,
2013-06-24 01:29:00,71.6,68.5,29.98,ENE,74,0.0,0.0,90,0.00,CLR,,0.00,WeatherDisplay:10.37,2013-06-24 06:29:00,
2013-06-24 01:34:00,71.6,68.5,29.98,ENE,74,0.0,0.0,90,0.00,CLR,,0.00,WeatherDisplay:10.37,2013-06-24 06:34:00,
2013-06-24 01:39:00,71.6,68.5,29.98,ENE,74,0.0,0.0,90,0.00,CLR,,0.00,WeatherDisplay:10.37,2013-06-24 06:39:00,
2013-06-24 01:44:00,71.5,68.4,29.98,ENE,74,0.0,0.0,90,0.00,CLR,,0.00,WeatherDisplay:10.37,2013-06-24 06:44:00,
2013-06-24 01:49:00,71.6,68.8,29.98,ENE,74,0.0,0.0,91,0.00,CLR,,0.00,WeatherDisplay:10.37,2013-06-24 06:49:00,
2013-06-24 01:55:00,71.5,68.7,29.98,ENE,74,0.0,0.0,91,0.00,CLR,,0.00,WeatherDisplay:10.37,2013-06-24 06:55:00,
2013-06-24 02:00:00,71.5,68.7,29.99,ENE,74,0.0,0.0,91,0.00,CLR,,0.00,WeatherDisplay:10.37,2013-06-24 07:00:00,
2013-06-24 02:05:00,71.6,68.5,29.99,ENE,74,0.0,0.0,90,0.00,CLR,,0.00,WeatherDisplay:10.37,2013-06-24 07:05:00,
2013-06-24 02:10:00,71.7,68.9,29.99,ENE,74,0.0,0.0,91,0.00,CLR,,0.00,WeatherDisplay:10.37,2013-06-24 07:10:00,
2013-06-24 02:15:00,71.8,69.0,29.99,ENE,74,0.0,0.0,91,0.00,CLR,,0.00,WeatherDisplay:10.37,2013-06-24 07:15:00,
2013-06-24 02:20:00,71.9,69.1,29.99,ENE,74,0.0,0.0,91,0.00,CLR,,0.00,WeatherDisplay:10.37,2013-06-24 07:20:00,
2013-06-24 02:25:00,71.9,69.1,29.99,ENE,74,0.0,0.0,91,0.00,CLR,,0.00,WeatherDisplay:10.37,2013-06-24 07:25:00,
2013-06-24 02:30:00,71.9,69.1,29.99,ENE,74,0.0,0.0,91,0.00,CLR,,0.00,WeatherDisplay:10.37,2013-06-24 07:30:00,
2013-06-24 02:35:00,71.9,68.8,29.99,ENE,74,0.0,0.0,90,0.00,CLR,,0.00,WeatherDisplay:10.37,2013-06-24 07:35:00,
2013-06-24 02:40:00,71.8,69.0,29.99,ENE,74,0.0,0.0,91,0.00,CLR,,0.00,WeatherDisplay:10.37,2013-06-24 07:40:00,
2013-06-24 02:46:00,72.0,69.2,29.99,ENE,74,0.0,0.0,91,0.00,CLR,,0.00,WeatherDisplay:10.37,2013-06-24 07:46:00,
2013-06-24 02:51:00,71.9,69.1,29.99,ENE,74,0.0,0.0,91,0.00,CLR,,0.00,WeatherDisplay:10.37,2013-06-24 07:51:00,
2013-06-24 02:56:00,71.8,69.0,29.99,ENE,74,0.0,0.0,91,0.00,CLR,,0.00,WeatherDisplay:10.37,2013-06-24 07:56:00,
2013-06-24 03:01:00,71.8,69.0,29.99,ENE,74,0.0,0.0,91,0.00,CLR,,0.00,WeatherDisplay:10.37,2013-06-24 08:01:00,
2013-06-24 03:07:00,71.9,69.4,29.99,ENE,74,0.0,0.0,92,0.00,CLR,,0.00,WeatherDisplay:10.37,2013-06-24 08:07:00,
2013-06-24 03:12:00,72.0,69.5,29.99,ENE,74,0.0,0.0,92,0.00,CLR,,0.00,WeatherDisplay:10.37,2013-06-24 08:12:00,
2013-06-24 03:17:00,71.9,69.1,29.99,ENE,74,0.0,0.0,91,0.00,CLR,,0.00,WeatherDisplay:10.37,2013-06-24 08:17:00,
2013-06-24 03:22:00,71.9,69.4,29.98,ENE,74,0.0,0.0,92,0.00,CLR,,0.00,WeatherDisplay:10.37,2013-06-24 08:22:00,
2013-06-24 03:27:00,71.9,69.4,29.98,ENE,74,0.0,0.0,92,0.00,CLR,,0.00,WeatherDisplay:10.37,2013-06-24 08:27:00,
2013-06-24 03:32:00,72.0,69.5,29.98,ENE,74,0.0,0.0,92,0.00,CLR,,0.00,WeatherDisplay:10.37,2013-06-24 08:32:00,
2013-06-24 03:38:00,72.0,69.5,29.98,ENE,74,0.0,0.0,92,0.00,CLR,,0.00,WeatherDisplay:10.37,2013-06-24 08:38:00,
2013-06-24 03:43:00,71.9,69.4,29.98,ENE,74,0.0,0.0,92,0.00,CLR,,0.00,WeatherDisplay:10.37,2013-06-24 08:43:00,
2013-06-24 03:48:00,71.8,69.3,29.98,ENE,74,0.0,0.0,92,0.00,CLR,,0.00,WeatherDisplay:10.37,2013-06-24 08:48:00,
2013-06-24 03:53:00,71.8,69.3,29.98,ENE,74,0.0,0.0,92,0.00,CLR,,0.00,WeatherDisplay:10.37,2013-06-24 08:53:00,
2013-06-24 03:58:00,71.8,69.3,29.98,ENE,74,0.0,0.0,92,0.00,CLR,,0.00,WeatherDisplay:10.37,2013-06-24 08:58:00,
2013-06-24 04:03:00,71.9,69.4,29.98,ENE,74,0.0,0.0,92,0.00,CLR,,0.00,WeatherDisplay:10.37,2013-06-24 09:03:00,
2013-06-24 04:09:00,71.9,69.4,29.98,ENE,74,0.0,0.0,92,0.00,CLR,,0.00,WeatherDisplay:10.37,2013-06-24 09:09:00,
2013-06-24 04:14:00,72.0,69.5,29.98,ENE,74,0.0,0.0,92,0.00,CLR,,0.00,WeatherDisplay:10.37,2013-06-24 09:14:00,
2013-06-24 04:19:00,72.1,69.6,29.98,ENE,74,0.0,0.0,92,0.00,CLR,,0.00,WeatherDisplay:10.37,2013-06-24 09:19:00,
2013-06-24 04:25:00,72.2,69.7,29.98,ENE,74,0.0,0.0,92,0.00,CLR,,0.00,WeatherDisplay:10.37,2013-06-24 09:25:00,
2013-06-24 04:30:00,72.1,69.6,29.98,ENE,74,0.0,0.0,92,0.00,CLR,,0.00,WeatherDisplay:10.37,2013-06-24 09:30:00,
2013-06-24 04:35:00,72.0,69.2,29.98,ENE,74,0.0,0.0,91,0.00,CLR,,0.00,WeatherDisplay:10.37,2013-06-24 09:35:00,
2013-06-24 04:40:00,71.9,69.1,29.98,ENE,74,0.0,0.0,91,0.00,CLR,,0.00,WeatherDisplay:10.37,2013-06-24 09:40:00,
2013-06-24 04:45:00,71.8,69.0,29.98,ENE,74,0.0,0.0,91,0.00,CLR,,0.00,WeatherDisplay:10.37,2013-06-24 09:45:00,
2013-06-24 04:51:00,71.7,69.3,29.98,ENE,74,0.0,0.0,92,0.00,CLR,,0.00,WeatherDisplay:10.37,2013-06-24 09:51:00,
2013-06-24 04:56:00,71.8,69.3,29.98,ENE,74,0.0,0.0,92,0.00,CLR,,0.00,WeatherDisplay:10.37,2013-06-24 09:56:00,
2013-06-24 05:01:00,71.8,69.3,29.98,ENE,74,0.0,0.0,92,0.00,CLR,,0.00,WeatherDisplay:10.37,2013-06-24 10:01:00,
2013-06-24 05:06:00,71.8,69.3,29.98,ENE,74,0.0,0.0,92,0.00,CLR,,0.00,WeatherDisplay:10.37,2013-06-24 10:06:00,
2013-06-24 05:11:00,71.8,69.3,29.98,East,97,0.0,0.0,92,0.00,CLR,,0.00,WeatherDisplay:10.37,2013-06-24 10:11:00,
2013-06-24 05:16:00,71.8,69.3,29.98,ESE,103,0.0,0.0,92,0.00,CLR,,0.00,WeatherDisplay:10.37,2013-06-24 10:16:00,
2013-06-24 05:22:00,71.9,69.4,29.99,ESE,103,0.0,0.0,92,0.00,CLR,,0.00,WeatherDisplay:10.37,2013-06-24 10:22:00,
2013-06-24 05:27:00,72.0,69.5,29.99,ESE,103,0.0,0.0,92,0.00,CLR,,0.00,WeatherDisplay:10.37,2013-06-24 10:27:00,
2013-06-24 05:32:00,72.0,69.5,29.99,ESE,103,0.0,0.0,92,0.00,CLR,,0.00,WeatherDisplay:10.37,2013-06-24 10:32:00,
2013-06-24 05:37:00,72.0,69.9,29.99,ESE,103,0.0,0.0,93,0.00,CLR,,0.00,WeatherDisplay:10.37,2013-06-24 10:37:00,
2013-06-24 05:42:00,72.1,70.0,29.99,ESE,103,0.0,0.0,93,0.00,CLR,,0.00,WeatherDisplay:10.37,2013-06-24 10:42:00,
2013-06-24 05:47:00,72.0,69.9,30.00,ESE,103,0.0,0.0,93,0.00,CLR,,0.00,WeatherDisplay:10.37,2013-06-24 10:47:00,
2013-06-24 05:52:00,72.0,69.9,30.00,ESE,103,0.0,0.0,93,0.00,CLR,,0.00,WeatherDisplay:10.37,2013-06-24 10:52:00,
2013-06-24 05:57:00,71.9,69.4,30.00,ESE,103,0.0,0.0,92,0.00,CLR,,0.00,WeatherDisplay:10.37,2013-06-24 10:57:00,
2013-06-24 06:03:00,72.0,69.9,30.00,ESE,103,0.0,0.0,93,0.00,CLR,,0.00,WeatherDisplay:10.37,2013-06-24 11:03:00,
2013-06-24 06:08:00,72.0,69.9,30.01,SSW,210,0.0,0.0,93,0.00,CLR,,0.00,WeatherDisplay:10.37,2013-06-24 11:08:00,
2013-06-24 06:13:00,72.0,69.9,30.01,SSE,153,0.0,0.0,93,0.00,CLR,,0.00,WeatherDisplay:10.37,2013-06-24 11:13:00,
2013-06-24 06:18:00,72.0,69.9,30.01,SSE,148,0.0,0.0,93,0.00,CLR,,0.00,WeatherDisplay:10.37,2013-06-24 11:18:00,
2013-06-24 06:23:00,72.0,69.9,30.01,ESE,105,1.1,0.0,93,0.00,CLR,,0.00,WeatherDisplay:10.37,2013-06-24 11:23:00,
2013-06-24 06:29:00,72.0,69.9,30.01,ESE,105,0.0,0.0,93,0.00,CLR,,0.00,WeatherDisplay:10.37,2013-06-24 11:29:00,
2013-06-24 06:34:00,72.1,70.0,30.02,ESE,105,0.0,0.0,93,0.00,CLR,,0.00,WeatherDisplay:10.37,2013-06-24 11:34:00,
2013-06-24 06:39:00,72.1,70.0,30.02,East,94,0.0,0.0,93,0.00,CLR,,0.00,WeatherDisplay:10.37,2013-06-24 11:39:00,
2013-06-24 06:44:00,72.2,70.1,30.03,East,94,0.0,0.0,93,0.00,CLR,,0.00,WeatherDisplay:10.37,2013-06-24 11:44:00,
2013-06-24 06:49:00,72.2,70.1,30.02,East,94,0.0,0.0,93,0.00,CLR,,0.00,WeatherDisplay:10.37,2013-06-24 11:49:00,
2013-06-24 06:55:00,72.4,70.3,30.03,East,94,0.0,0.0,93,0.00,CLR,,0.00,WeatherDisplay:10.37,2013-06-24 11:55:00,
2013-06-24 07:00:00,72.4,70.3,30.03,East,94,0.0,0.0,93,0.00,CLR,,0.00,WeatherDisplay:10.37,2013-06-24 12:00:00,
2013-06-24 07:05:00,72.6,70.5,30.03,East,92,1.1,1.1,93,0.00,CLR,,0.00,WeatherDisplay:10.37,2013-06-24 12:05:00,
2013-06-24 07:10:00,72.9,70.8,30.04,East,95,1.1,0.0,93,0.00,CLR,,0.00,WeatherDisplay:10.37,2013-06-24 12:10:00,
2013-06-24 07:15:00,73.1,71.0,30.04,East,96,0.0,0.0,93,0.00,CLR,,0.00,WeatherDisplay:10.37,2013-06-24 12:15:00,
2013-06-24 07:20:00,73.3,71.2,30.04,ESE,109,2.3,2.3,93,0.00,CLR,,0.00,WeatherDisplay:10.37,2013-06-24 12:20:00,
2013-06-24 07:25:00,73.6,71.4,30.04,East,89,0.0,0.0,93,0.00,CLR,,0.00,WeatherDisplay:10.37,2013-06-24 12:25:00,
2013-06-24 07:30:00,73.9,71.4,30.04,ESE,123,0.0,0.0,92,0.00,CLR,,0.00,WeatherDisplay:10.37,2013-06-24 12:30:00,
2013-06-24 07:36:00,74.2,71.7,30.04,ENE,76,0.0,0.0,92,0.00,CLR,,0.00,WeatherDisplay:10.37,2013-06-24 12:36:00,
2013-06-24 07:41:00,74.4,71.9,30.04,ENE,76,0.0,0.0,92,0.00,CLR,,0.00,WeatherDisplay:10.37,2013-06-24 12:41:00,
2013-06-24 07:46:00,74.7,71.9,30.04,ENE,76,0.0,0.0,91,0.00,CLR,,0.00,WeatherDisplay:10.37,2013-06-24 12:46:00,
2013-06-24 07:51:00,74.9,72.1,30.04,ENE,76,0.0,0.0,91,0.00,CLR,,0.00,WeatherDisplay:10.37,2013-06-24 12:51:00,
2013-06-24 07:56:00,75.1,72.3,30.04,ESE,121,0.0,0.0,91,0.00,CLR,,0.00,WeatherDisplay:10.37,2013-06-24 12:56:00,
2013-06-24 08:02:00,75.3,72.2,30.05,SE,132,1.1,0.0,90,0.00,CLR,,0.00,WeatherDisplay:10.37,2013-06-24 13:02:00,
2013-06-24 08:07:00,75.5,72.4,30.05,SW,223,0.0,0.1,90,0.00,CLR,,0.00,WeatherDisplay:10.37,2013-06-24 13:07:00,
2013-06-24 08:12:00,75.7,72.6,30.05,SW,222,2.3,2.3,90,0.00,CLR,,0.00,WeatherDisplay:10.37,2013-06-24 13:12:00,
2013-06-24 08:17:00,76.0,72.9,30.05,SW,226,1.1,0.0,90,0.00,CLR,,0.00,WeatherDisplay:10.37,2013-06-24 13:17:00,
2013-06-24 08:22:00,76.3,73.1,30.05,SW,232,1.1,1.1,90,0.00,CLR,,0.00,WeatherDisplay:10.37,2013-06-24 13:22:00,
2013-06-24 08:27:00,76.6,73.1,30.05,East,84,1.1,1.1,89,0.00,CLR,,0.00,WeatherDisplay:10.37,2013-06-24 13:27:00,
2013-06-24 08:32:00,76.9,73.4,30.05,SW,232,5.8,5.8,89,0.00,CLR,,0.00,WeatherDisplay:10.37,2013-06-24 13:32:00,
2013-06-24 08:37:00,77.2,73.4,30.05,SW,233,3.5,3.5,88,0.00,CLR,,0.00,WeatherDisplay:10.37,2013-06-24 13:37:00,
2013-06-24 08:42:00,77.6,73.8,30.05,West,262,1.1,0.0,88,0.00,CLR,,0.00,WeatherDisplay:10.37,2013-06-24 13:42:00,
2013-06-24 08:47:00,77.9,74.1,30.05,WNW,284,5.8,5.8,88,0.00,CLR,,0.00,WeatherDisplay:10.37,2013-06-24 13:47:00,
2013-06-24 08:52:00,78.3,74.1,30.05,WSW,253,4.6,4.6,87,0.00,CLR,,0.00,WeatherDisplay:10.37,2013-06-24 13:52:00,
2013-06-24 08:58:00,78.7,74.5,30.06,SSW,196,3.5,3.5,87,0.00,CLR,,0.00,WeatherDisplay:10.37,2013-06-24 13:58:00,
2013-06-24 09:03:00,79.1,74.5,30.05,West,266,4.0,4.0,86,0.00,CLR,,0.00,WeatherDisplay:10.37,2013-06-24 14:03:00,
2013-06-24 09:08:00,79.6,75.0,30.05,SSE,153,3.5,3.5,86,0.00,CLR,,0.00,WeatherDisplay:10.37,2013-06-24 14:08:00,
2013-06-24 09:13:00,80.1,74.8,30.05,SW,215,3.5,3.5,84,0.00,CLR,,0.00,WeatherDisplay:10.37,2013-06-24 14:13:00,
2013-06-24 09:18:00,80.5,75.2,30.05,East,99,3.5,3.5,84,0.00,CLR,,0.00,WeatherDisplay:10.37,2013-06-24 14:18:00,
2013-06-24 09:23:00,81.1,75.8,30.05,WSW,239,3.5,3.5,84,0.00,CLR,,0.00,WeatherDisplay:10.37,2013-06-24 14:23:00,
2013-06-24 09:28:00,81.6,75.9,30.05,SSW,206,2.3,2.3,83,0.00,CLR,,0.00,WeatherDisplay:10.37,2013-06-24 14:28:00,
2013-06-24 09:33:00,81.9,75.9,30.05,WSW,241,4.6,4.6,82,0.00,CLR,,0.00,WeatherDisplay:10.37,2013-06-24 14:33:00,
2013-06-24 09:38:00,82.1,75.7,30.05,SW,218,7.0,7.0,81,0.00,CLR,,0.00,WeatherDisplay:10.37,2013-06-24 14:38:00,
2013-06-24 09:43:00,82.5,76.1,30.05,WSW,237,6.9,6.9,81,0.00,CLR,,0.00,WeatherDisplay:10.37,2013-06-24 14:43:00,
2013-06-24 09:48:00,82.9,76.5,30.05,SW,229,8.0,8.0,81,0.00,CLR,,0.00,WeatherDisplay:10.37,2013-06-24 14:48:00,
2013-06-24 09:53:00,83.4,76.6,30.05,SSW,208,5.0,5.0,80,0.00,CLR,,0.00,WeatherDisplay:10.37,2013-06-24 14:53:00,
2013-06-24 09:58:00,83.7,76.1,30.05,SW,230,6.9,6.9,78,0.00,CLR,,0.00,WeatherDisplay:10.37,2013-06-24 14:58:00,
2013-06-24 10:03:00,83.8,75.8,30.05,WSW,240,3.5,3.5,77,0.00,CLR,,0.00,WeatherDisplay:10.37,2013-06-24 15:03:00,
2013-06-24 10:08:00,84.1,76.1,30.05,SW,227,3.5,3.5,77,0.00,CLR,,0.00,WeatherDisplay:10.37,2013-06-24 15:08:00,
2013-06-24 10:14:00,84.6,76.6,30.05,West,261,4.0,4.0,77,0.00,CLR,,0.00,WeatherDisplay:10.37,2013-06-24 15:14:00,
2013-06-24 10:19:00,85.0,76.6,30.05,WSW,239,4.6,4.6,76,0.00,CLR,,0.00,WeatherDisplay:10.37,2013-06-24 15:19:00,
2013-06-24 10:24:00,85.3,76.1,30.05,SW,234,3.5,3.5,74,0.00,CLR,,0.00,WeatherDisplay:10.37,2013-06-24 15:24:00,
2013-06-24 10:29:00,85.3,76.1,30.05,SSW,207,5.8,5.8,74,0.00,CLR,,0.00,WeatherDisplay:10.37,2013-06-24 15:29:00,
2013-06-24 10:34:00,85.5,77.1,30.05,WSW,240,4.6,4.6,76,0.00,CLR,,0.00,WeatherDisplay:10.37,2013-06-24 15:34:00,
2013-06-24 10:39:00,85.7,76.9,30.05,West,263,5.0,5.0,75,0.00,CLR,,0.00,WeatherDisplay:10.37,2013-06-24 15:39:00,
2013-06-24 10:44:00,85.4,75.3,30.05,WSW,240,10.4,10.4,72,0.00,CLR,,0.00,WeatherDisplay:10.37,2013-06-24 15:44:00,
2013-06-24 10:58:00,85.8,76.1,30.04,SW,225,10.4,0.0,73,0.00,CLR,,0.00,WeatherDisplay:10.37,2013-06-24 15:58:00,
2013-06-24 11:03:00,86.3,76.2,30.04,WSW,257,8.1,8.1,72,0.00,CLR,,0.00,WeatherDisplay:10.37,2013-06-24 16:03:00,
2013-06-24 11:08:00,87.0,76.5,30.04,WSW,239,10.4,10.4,71,0.00,CLR,,0.00,WeatherDisplay:10.37,2013-06-24 16:08:00,
2013-06-24 11:13:00,87.4,77.3,30.04,WSW,246,5.8,5.8,72,0.00,CLR,,0.00,WeatherDisplay:10.37,2013-06-24 16:13:00,
2013-06-24 11:19:00,87.3,76.3,30.04,SW,224,11.5,11.5,70,0.00,CLR,,0.00,WeatherDisplay:10.37,2013-06-24 16:19:00,
2013-06-24 11:24:00,87.4,76.4,30.04,SW,225,9.2,9.2,70,0.00,CLR,,0.00,WeatherDisplay:10.37,2013-06-24 16:24:00,
2013-06-24 11:29:00,87.0,74.7,30.04,WSW,238,8.1,8.1,67,0.00,CLR,,0.00,WeatherDisplay:10.37,2013-06-24 16:29:00,
2013-06-24 11:34:00,86.4,75.0,30.04,SW,228,5.0,5.0,69,0.00,CLR,,0.00,WeatherDisplay:10.37,2013-06-24 16:34:00,
2013-06-24 11:39:00,86.7,75.7,30.03,WSW,238,9.2,9.2,70,0.00,CLR,,0.00,WeatherDisplay:10.37,2013-06-24 16:39:00,
2013-06-24 11:45:00,87.4,76.0,30.03,SSW,193,11.5,11.5,69,0.00,CLR,,0.00,WeatherDisplay:10.37,2013-06-24 16:45:00,
2013-06-24 11:50:00,87.8,74.6,30.03,WSW,241,11.5,11.5,65,0.00,CLR,,0.00,WeatherDisplay:10.37,2013-06-24 16:50:00,
2013-06-24 11:55:00,88.2,75.4,30.03,SW,215,4.6,4.6,66,0.00,CLR,,0.00,WeatherDisplay:10.37,2013-06-24 16:55:00,
2013-06-24 12:00:00,88.8,76.0,30.03,SW,217,4.6,4.6,66,0.00,CLR,,0.00,WeatherDisplay:10.37,2013-06-24 17:00:00,
2013-06-24 12:06:00,89.2,75.9,30.02,SW,236,6.9,6.9,65,0.00,CLR,,0.00,WeatherDisplay:10.37,2013-06-24 17:06:00,
2013-06-24 12:11:00,89.5,76.2,30.02,WSW,242,6.9,6.9,65,0.00,CLR,,0.00,WeatherDisplay:10.37,2013-06-24 17:11:00,
2013-06-24 12:16:00,89.3,75.0,30.02,West,259,6.0,6.0,63,0.00,CLR,,0.00,WeatherDisplay:10.37,2013-06-24 17:16:00,
2013-06-24 12:21:00,89.4,76.1,30.01,SW,219,3.5,3.5,65,0.00,CLR,,0.00,WeatherDisplay:10.37,2013-06-24 17:21:00,
2013-06-24 12:26:00,89.7,75.9,30.01,WSW,238,8.1,8.1,64,0.00,CLR,,0.00,WeatherDisplay:10.37,2013-06-24 17:26:00,
2013-06-24 12:31:00,89.5,74.8,30.01,SSW,201,4.6,4.6,62,0.00,CLR,,0.00,WeatherDisplay:10.37,2013-06-24 17:31:00,
2013-06-24 12:36:00,89.3,74.6,30.01,WSW,253,6.9,6.9,62,0.00,CLR,,0.00,WeatherDisplay:10.37,2013-06-24 17:36:00,
2013-06-24 12:41:00,89.0,74.3,30.01,SW,223,3.5,3.5,62,0.00,CLR,,0.00,WeatherDisplay:10.37,2013-06-24 17:41:00,
2013-06-24 12:46:00,88.8,75.0,30.01,WSW,257,4.6,4.6,64,0.00,CLR,,0.00,WeatherDisplay:10.37,2013-06-24 17:46:00,
2013-06-24 12:51:00,88.6,75.3,30.01,West,272,1.0,1.0,65,0.00,CLR,,0.00,WeatherDisplay:10.37,2013-06-24 17:51:00,
2013-06-24 12:56:00,88.8,75.5,30.00,WSW,247,3.5,3.5,65,0.00,CLR,,0.00,WeatherDisplay:10.37,2013-06-24 17:56:00,
2013-06-24 13:02:00,89.2,77.3,30.00,West,261,5.0,5.0,68,0.00,CLR,,0.00,WeatherDisplay:10.37,2013-06-24 18:02:00,
2013-06-24 13:07:00,89.2,76.4,30.00,WSW,250,3.5,3.5,66,0.00,CLR,,0.00,WeatherDisplay:10.37,2013-06-24 18:07:00,
2013-06-24 13:12:00,89.4,75.6,29.99,West,272,4.6,4.6,64,0.00,CLR,,0.00,WeatherDisplay:10.37,2013-06-24 18:12:00,
2013-06-24 13:17:00,89.4,76.1,29.99,WSW,237,8.1,8.1,65,0.00,CLR,,0.00,WeatherDisplay:10.37,2013-06-24 18:17:00,
2013-06-24 13:22:00,89.8,76.5,29.99,WSW,253,5.8,5.8,65,0.00,CLR,,0.00,WeatherDisplay:10.37,2013-06-24 18:22:00,
2013-06-24 13:28:00,90.4,76.6,29.99,WSW,249,3.5,3.5,64,0.00,CLR,,0.00,WeatherDisplay:10.37,2013-06-24 18:28:00,
2013-06-24 13:33:00,90.9,77.5,29.99,WSW,238,4.6,4.7,65,0.00,CLR,,0.00,WeatherDisplay:10.37,2013-06-24 18:33:00,
2013-06-24 13:38:00,91.3,76.0,29.99,SSW,210,4.6,4.6,61,0.00,CLR,,0.00,WeatherDisplay:10.37,2013-06-24 18:38:00,
2013-06-24 13:43:00,91.1,76.3,29.99,WSW,257,4.6,4.6,62,0.00,CLR,,0.00,WeatherDisplay:10.37,2013-06-24 18:43:00,
2013-06-24 13:48:00,90.9,76.6,29.99,SW,219,3.5,3.5,63,0.00,CLR,,0.00,WeatherDisplay:10.37,2013-06-24 18:48:00,
2013-06-24 13:53:00,91.1,77.2,29.99,SW,218,3.5,3.5,64,0.00,CLR,,0.00,WeatherDisplay:10.37,2013-06-24 18:53:00,
2013-06-24 13:58:00,91.0,75.2,29.99,SW,230,3.5,3.5,60,0.00,CLR,,0.00,WeatherDisplay:10.37,2013-06-24 18:58:00,
2013-06-24 14:04:00,91.3,76.5,29.99,WSW,248,3.5,3.5,62,0.00,CLR,,0.00,WeatherDisplay:10.37,2013-06-24 19:04:00,
2013-06-24 14:09:00,91.7,74.8,29.99,West,259,3.5,3.5,58,0.00,CLR,,0.00,WeatherDisplay:10.37,2013-06-24 19:09:00,
2013-06-24 14:14:00,92.0,76.6,29.98,West,259,3.5,3.5,61,0.00,CLR,,0.00,WeatherDisplay:10.37,2013-06-24 19:14:00,
2013-06-24 14:19:00,91.9,76.5,29.98,SW,235,3.5,3.5,61,0.00,CLR,,0.00,WeatherDisplay:10.37,2013-06-24 19:19:00,
2013-06-24 14:24:00,91.5,75.7,29.98,SW,235,1.1,1.1,60,0.00,CLR,,0.00,WeatherDisplay:10.37,2013-06-24 19:24:00,
2013-06-24 14:29:00,91.5,77.1,29.97,WSW,247,1.1,1.1,63,0.00,CLR,,0.00,WeatherDisplay:10.37,2013-06-24 19:29:00,
2013-06-24 14:34:00,91.9,77.5,29.97,West,261,2.3,2.3,63,0.00,CLR,,0.00,WeatherDisplay:10.37,2013-06-24 19:34:00,
2013-06-24 14:39:00,92.2,77.3,29.98,SW,232,3.5,3.5,62,0.00,CLR,,0.00,WeatherDisplay:10.37,2013-06-24 19:39:00,
2013-06-24 14:45:00,92.2,76.3,29.98,West,267,3.5,3.5,60,0.00,CLR,,0.00,WeatherDisplay:10.37,2013-06-24 19:45:00,
2013-06-24 14:50:00,92.5,76.6,29.98,WSW,238,3.5,3.5,60,0.00,CLR,,0.00,WeatherDisplay:10.37,2013-06-24 19:50:00,
2013-06-24 14:55:00,93.1,77.2,29.97,West,267,2.3,2.3,60,0.00,CLR,,0.00,WeatherDisplay:10.37,2013-06-24 19:55:00,
2013-06-24 15:00:00,93.4,75.4,29.98,SSW,200,0.0,0.0,56,0.00,CLR,,0.00,WeatherDisplay:10.37,2013-06-24 20:00:00,
2013-06-24 15:05:00,93.3,74.7,29.97,South,187,1.1,1.1,55,0.00,CLR,,0.00,WeatherDisplay:10.37,2013-06-24 20:05:00,
2013-06-24 15:10:00,92.9,74.4,29.97,SW,225,2.3,2.3,55,0.00,CLR,,0.00,WeatherDisplay:10.37,2013-06-24 20:10:00,
2013-06-24 15:15:00,92.5,75.6,29.97,WSW,250,2.3,2.3,58,0.00,CLR,,0.00,WeatherDisplay:10.37,2013-06-24 20:15:00,
2013-06-24 15:21:00,92.4,77.0,29.97,WSW,250,1.1,1.1,61,0.00,CLR,,0.00,WeatherDisplay:10.37,2013-06-24 20:21:00,
2013-06-24 15:26:00,92.1,75.7,29.97,WSW,250,0.0,0.0,59,0.00,CLR,,0.00,WeatherDisplay:10.37,2013-06-24 20:26:00,
2013-06-24 15:31:00,91.9,76.0,29.97,WSW,250,0.0,0.0,60,0.00,CLR,,0.00,WeatherDisplay:10.37,2013-06-24 20:31:00,
2013-06-24 15:36:00,91.9,77.5,29.97,WSW,250,0.0,0.0,63,0.00,CLR,,0.00,WeatherDisplay:10.37,2013-06-24 20:36:00,
2013-06-24 15:41:00,91.5,76.6,29.97,WSW,250,0.0,0.1,62,0.00,CLR,,0.00,WeatherDisplay:10.37,2013-06-24 20:41:00,
2013-06-24 15:47:00,91.3,77.4,29.97,WSW,250,0.0,0.0,64,0.00,CLR,,0.00,WeatherDisplay:10.37,2013-06-24 20:47:00,
2013-06-24 15:52:00,91.2,78.2,29.97,WSW,250,0.0,0.0,66,0.00,CLR,,0.00,WeatherDisplay:10.37,2013-06-24 20:52:00,
2013-06-24 15:57:00,90.9,77.0,29.97,WSW,257,0.0,0.0,64,0.00,CLR,,0.00,WeatherDisplay:10.37,2013-06-24 20:57:00,
2013-06-24 16:02:00,90.5,76.7,29.96,WSW,257,0.0,0.0,64,0.00,CLR,,0.00,WeatherDisplay:10.37,2013-06-24 21:02:00,
2013-06-24 16:07:00,89.8,76.5,29.97,NNE,28,2.3,2.3,65,0.00,CLR,,0.00,WeatherDisplay:10.37,2013-06-24 21:07:00,
2013-06-24 16:12:00,87.4,74.6,29.97,NE,46,1.1,1.1,66,0.00,CLR,,0.00,WeatherDisplay:10.37,2013-06-24 21:12:00,
2013-06-24 16:18:00,84.6,73.7,29.97,East,83,2.3,2.3,70,0.00,CLR,,0.00,WeatherDisplay:10.37,2013-06-24 21:18:00,
2013-06-24 16:23:00,83.1,73.1,29.97,NE,49,0.0,0.2,72,0.00,CLR,,0.00,WeatherDisplay:10.37,2013-06-24 21:23:00,
2013-06-24 16:28:00,82.4,73.3,29.96,ENE,71,1.1,1.1,74,0.00,CLR,,0.00,WeatherDisplay:10.37,2013-06-24 21:28:00,
2013-06-24 16:33:00,82.2,73.5,29.96,ENE,70,2.0,2.0,75,0.00,CLR,,0.00,WeatherDisplay:10.37,2013-06-24 21:33:00,
2013-06-24 16:38:00,82.5,73.8,29.96,East,100,1.1,1.1,75,0.00,CLR,,0.00,WeatherDisplay:10.37,2013-06-24 21:38:00,
2013-06-24 16:43:00,82.8,74.1,29.96,East,82,1.1,0.0,75,0.00,CLR,,0.00,WeatherDisplay:10.37,2013-06-24 21:43:00,
2013-06-24 16:48:00,82.7,74.0,29.96,East,81,1.1,1.1,75,0.00,CLR,,0.00,WeatherDisplay:10.37,2013-06-24 21:48:00,
2013-06-24 16:53:00,82.9,74.6,29.96,ESE,106,0.0,0.1,76,0.00,CLR,,0.00,WeatherDisplay:10.37,2013-06-24 21:53:00,
2013-06-24 16:59:00,83.2,74.8,29.96,ENE,67,1.1,1.1,76,0.00,CLR,,0.00,WeatherDisplay:10.37,2013-06-24 21:59:00,
2013-06-24 17:04:00,83.4,75.0,29.96,ENE,73,0.0,0.0,76,0.00,CLR,,0.00,WeatherDisplay:10.37,2013-06-24 22:04:00,
2013-06-24 17:09:00,83.4,75.0,29.95,ENE,67,1.1,1.1,76,0.00,CLR,,0.00,WeatherDisplay:10.37,2013-06-24 22:09:00,
2013-06-24 17:14:00,83.3,75.3,29.95,NE,55,0.0,0.0,77,0.00,CLR,,0.00,WeatherDisplay:10.37,2013-06-24 22:14:00,
2013-06-24 17:19:00,83.3,75.3,29.95,ESE,122,1.1,0.0,77,0.00,CLR,,0.00,WeatherDisplay:10.37,2013-06-24 22:19:00,
2013-06-24 17:25:00,83.4,75.4,29.95,East,98,1.1,1.1,77,0.00,CLR,,0.00,WeatherDisplay:10.37,2013-06-24 22:25:00,
2013-06-24 17:30:00,83.6,75.6,29.94,East,91,1.1,1.1,77,0.00,CLR,,0.00,WeatherDisplay:10.37,2013-06-24 22:30:00,
2013-06-24 17:35:00,83.8,75.8,29.95,East,100,1.1,0.0,77,0.00,CLR,,0.00,WeatherDisplay:10.37,2013-06-24 22:35:00,
2013-06-24 17:40:00,83.8,75.8,29.95,East,89,1.1,1.1,77,0.00,CLR,,0.00,WeatherDisplay:10.37,2013-06-24 22:40:00,
2013-06-24 17:45:00,83.8,75.4,29.95,East,84,1.1,1.1,76,0.00,CLR,,0.00,WeatherDisplay:10.37,2013-06-24 22:45:00,
2013-06-24 17:50:00,83.9,75.5,29.95,ESE,111,1.1,1.1,76,0.00,CLR,,0.00,WeatherDisplay:10.37,2013-06-24 22:50:00,
2013-06-24 17:55:00,83.9,75.5,29.95,East,91,3.5,3.5,76,0.00,CLR,,0.00,WeatherDisplay:10.37,2013-06-24 22:55:00,
2013-06-24 18:00:00,83.8,75.4,29.95,East,79,3.5,3.5,76,0.00,CLR,,0.00,WeatherDisplay:10.37,2013-06-24 23:00:00,
2013-06-24 18:05:00,83.6,75.2,29.95,East,93,3.5,3.5,76,0.00,CLR,,0.00,WeatherDisplay:10.37,2013-06-24 23:05:00,
2013-06-24 18:11:00,83.6,75.2,29.95,East,79,1.1,1.1,76,0.00,CLR,,0.00,WeatherDisplay:10.37,2013-06-24 23:11:00,
2013-06-24 18:16:00,83.5,75.1,29.95,East,86,0.0,0.0,76,0.00,CLR,,0.00,WeatherDisplay:10.37,2013-06-24 23:16:00,
2013-06-24 18:21:00,83.5,75.1,29.95,SE,124,2.3,0.0,76,0.00,CLR,,0.00,WeatherDisplay:10.37,2013-06-24 23:21:00,
2013-06-24 18:26:00,83.4,75.0,29.95,East,99,4.6,4.6,76,0.00,CLR,,0.00,WeatherDisplay:10.37,2013-06-24 23:26:00,
2013-06-24 18:31:00,83.3,74.9,29.95,ESE,109,1.1,1.1,76,0.00,CLR,,0.00,WeatherDisplay:10.37,2013-06-24 23:31:00,
2013-06-24 18:36:00,83.3,75.3,29.95,ESE,116,1.1,1.1,77,0.00,CLR,,0.00,WeatherDisplay:10.37,2013-06-24 23:36:00,
2013-06-24 18:42:00,83.3,75.3,29.95,ENE,78,0.0,0.0,77,0.00,CLR,,0.00,WeatherDisplay:10.37,2013-06-24 23:42:00,
2013-06-24 18:47:00,83.1,75.1,29.95,ESE,105,1.1,1.1,77,0.00,CLR,,0.00,WeatherDisplay:10.37,2013-06-24 23:47:00,
2013-06-24 18:52:00,83.0,75.0,29.95,East,84,0.0,0.0,77,0.00,CLR,,0.00,WeatherDisplay:10.37,2013-06-24 23:52:00,
2013-06-24 18:57:00,82.9,74.9,29.95,ESE,111,1.1,1.1,77,0.00,CLR,,0.00,WeatherDisplay:10.37,2013-06-24 23:57:00,
2013-06-24 19:02:00,82.8,74.8,29.95,East,86,1.1,1.1,77,0.00,CLR,,0.00,WeatherDisplay:10.37,2013-06-25 00:02:00,
2013-06-24 19:07:00,82.6,75.0,29.95,ESE,109,1.1,1.1,78,0.00,CLR,,0.00,WeatherDisplay:10.37,2013-06-25 00:07:00,
2013-06-24 19:12:00,82.5,74.9,29.94,ESE,116,3.5,3.5,78,0.00,CLR,,0.00,WeatherDisplay:10.37,2013-06-25 00:12:00,
2013-06-24 19:17:00,82.3,74.7,29.95,East,98,0.0,0.0,78,0.00,CLR,,0.00,WeatherDisplay:10.37,2013-06-25 00:17:00,
2013-06-24 19:22:00,82.2,74.7,29.94,East,97,1.1,1.1,78,0.00,CLR,,0.00,WeatherDisplay:10.37,2013-06-25 00:22:00,
2013-06-24 19:27:00,82.1,74.6,29.94,ESE,117,2.3,2.3,78,0.00,CLR,,0.00,WeatherDisplay:10.37,2013-06-25 00:27:00,
2013-06-24 19:32:00,81.9,74.7,29.94,ESE,116,0.0,0.0,79,0.00,CLR,,0.00,WeatherDisplay:10.37,2013-06-25 00:32:00,
2013-06-24 19:37:00,81.7,74.5,29.94,ESE,116,0.0,0.0,79,0.00,CLR,,0.00,WeatherDisplay:10.37,2013-06-25 00:37:00,
2013-06-24 19:42:00,81.5,74.4,29.94,East,84,0.0,0.0,79,0.00,CLR,,0.00,WeatherDisplay:10.37,2013-06-25 00:42:00,
2013-06-24 19:48:00,81.3,74.2,29.95,East,83,0.0,0.0,79,0.00,CLR,,0.00,WeatherDisplay:10.37,2013-06-25 00:48:00,
2013-06-24 19:53:00,81.1,74.0,29.95,East,83,0.0,0.0,79,0.00,CLR,,0.00,WeatherDisplay:10.37,2013-06-25 00:53:00,
2013-06-24 19:58:00,80.9,73.8,29.95,East,84,0.0,0.0,79,0.00,CLR,,0.00,WeatherDisplay:10.37,2013-06-25 00:58:00,
2013-06-24 20:03:00,80.7,73.6,29.95,East,84,1.1,0.0,79,0.00,CLR,,0.00,WeatherDisplay:10.37,2013-06-25 01:03:00,
2013-06-24 20:08:00,80.5,73.4,29.95,East,90,1.0,0.0,79,0.00,CLR,,0.00,WeatherDisplay:10.37,2013-06-25 01:08:00,
2013-06-24 20:14:00,80.4,73.3,29.95,ESE,109,1.1,1.1,79,0.00,CLR,,0.00,WeatherDisplay:10.37,2013-06-25 01:14:00,
2013-06-24 20:19:00,80.2,73.5,29.95,ESE,108,0.0,0.0,80,0.00,CLR,,0.00,WeatherDisplay:10.37,2013-06-25 01:19:00,
2013-06-24 20:24:00,80.1,73.4,29.95,ESE,107,0.0,0.0,80,0.00,CLR,,0.00,WeatherDisplay:10.37,2013-06-25 01:24:00,
2013-06-24 20:29:00,79.9,73.2,29.95,ESE,111,0.0,0.0,80,0.00,CLR,,0.00,WeatherDisplay:10.37,2013-06-25 01:29:00,
2013-06-24 20:34:00,79.6,73.3,29.95,ESE,111,0.0,0.0,81,0.00,CLR,,0.00,WeatherDisplay:10.37,2013-06-25 01:34:00,
2013-06-24 20:39:00,79.4,73.1,29.95,ESE,111,0.0,0.0,81,0.00,CLR,,0.00,WeatherDisplay:10.37,2013-06-25 01:39:00,
2013-06-24 20:44:00,79.2,73.2,29.95,ESE,111,0.0,0.0,82,0.00,CLR,,0.00,WeatherDisplay:10.37,2013-06-25 01:44:00,
2013-06-24 20:50:00,79.0,73.0,29.95,ESE,111,0.0,0.0,82,0.00,CLR,,0.00,WeatherDisplay:10.37,2013-06-25 01:50:00,
2013-06-24 20:55:00,78.8,72.8,29.96,ESE,111,0.0,0.0,82,0.00,CLR,,0.00,WeatherDisplay:10.37,2013-06-25 01:55:00,
2013-06-24 21:00:00,78.7,73.1,29.96,ESE,111,0.0,0.0,83,0.00,CLR,,0.00,WeatherDisplay:10.37,2013-06-25 02:00:00,
2013-06-24 21:05:00,78.4,72.8,29.96,ESE,111,0.0,0.0,83,0.00,CLR,,0.00,WeatherDisplay:10.37,2013-06-25 02:05:00,
2013-06-24 21:10:00,78.3,72.7,29.96,ESE,111,0.0,0.0,83,0.00,CLR,,0.00,WeatherDisplay:10.37,2013-06-25 02:10:00,
2013-06-24 21:15:00,78.2,73.0,29.95,ESE,106,1.1,1.1,84,0.00,CLR,,0.00,WeatherDisplay:10.37,2013-06-25 02:15:00,
2013-06-24 21:20:00,78.1,72.9,29.95,ESE,106,0.0,0.0,84,0.00,CLR,,0.00,WeatherDisplay:10.37,2013-06-25 02:20:00,
2013-06-24 21:25:00,77.9,72.7,29.95,ESE,107,1.1,1.1,84,0.00,CLR,,0.00,WeatherDisplay:10.37,2013-06-25 02:25:00,
2013-06-24 21:31:00,77.9,72.7,29.95,ESE,103,1.1,0.0,84,0.00,CLR,,0.00,WeatherDisplay:10.37,2013-06-25 02:31:00,
2013-06-24 21:36:00,77.9,72.7,29.95,ESE,103,0.0,0.0,84,0.00,CLR,,0.00,WeatherDisplay:10.37,2013-06-25 02:36:00,
2013-06-24 21:41:00,77.9,72.7,29.95,ESE,103,1.1,1.1,84,0.00,CLR,,0.00,WeatherDisplay:10.37,2013-06-25 02:41:00,
2013-06-24 21:46:00,77.9,72.7,29.95,East,94,2.3,2.3,84,0.00,CLR,,0.00,WeatherDisplay:10.37,2013-06-25 02:46:00,
2013-06-24 21:51:00,77.9,73.0,29.94,East,101,1.1,1.1,85,0.00,CLR,,0.00,WeatherDisplay:10.37,2013-06-25 02:51:00,
2013-06-24 21:56:00,78.0,73.1,29.94,ESE,117,1.0,1.0,85,0.00,CLR,,0.00,WeatherDisplay:10.37,2013-06-25 02:56:00,
2013-06-24 22:01:00,78.0,73.1,29.95,East,96,2.3,2.3,85,0.00,CLR,,0.00,WeatherDisplay:10.37,2013-06-25 03:01:00,
2013-06-24 22:06:00,78.1,73.2,29.94,ESE,109,2.3,2.3,85,0.00,CLR,,0.00,WeatherDisplay:10.37,2013-06-25 03:06:00,
2013-06-24 22:11:00,78.2,73.0,29.94,East,96,3.5,0.0,84,0.00,CLR,,0.00,WeatherDisplay:10.37,2013-06-25 03:11:00,
2013-06-24 22:17:00,78.2,73.0,29.94,East,87,4.6,4.6,84,0.00,CLR,,0.00,WeatherDisplay:10.37,2013-06-25 03:17:00,
2013-06-24 22:22:00,78.2,73.0,29.95,East,94,1.1,0.0,84,0.00,CLR,,0.00,WeatherDisplay:10.37,2013-06-25 03:22:00,
2013-06-24 22:27:00,78.2,73.0,29.95,East,96,2.0,2.0,84,0.00,CLR,,0.00,WeatherDisplay:10.37,2013-06-25 03:27:00,
2013-06-24 22:32:00,78.1,73.2,29.94,East,92,0.0,0.0,85,0.00,CLR,,0.00,WeatherDisplay:10.37,2013-06-25 03:32:00,
2013-06-24 22:38:00,77.9,73.0,29.95,East,92,1.0,0.0,85,0.00,CLR,,0.00,WeatherDisplay:10.37,2013-06-25 03:38:00,
2013-06-24 22:43:00,77.9,73.0,29.95,East,94,0.0,0.0,85,0.00,CLR,,0.00,WeatherDisplay:10.37,2013-06-25 03:43:00,
2013-06-24 22:48:00,77.8,72.9,29.95,ESE,105,0.0,0.0,85,0.00,CLR,,0.00,WeatherDisplay:10.37,2013-06-25 03:48:00,
2013-06-24 22:53:00,77.6,73.1,29.95,ENE,69,0.0,0.0,86,0.00,CLR,,0.00,WeatherDisplay:10.37,2013-06-25 03:53:00,
2013-06-24 22:58:00,77.4,72.9,29.95,ENE,72,0.0,0.0,86,0.00,CLR,,0.00,WeatherDisplay:10.37,2013-06-25 03:58:00,
2013-06-24 23:01:00,77.3,72.8,29.95,ENE,72,0.0,0.0,86,0.00,CLR,,0.00,WeatherDisplay:10.37,2013-06-25 04:01:00,
2013-06-24 23:06:00,77.2,72.7,29.95,ENE,78,1.1,1.1,86,0.00,CLR,,0.00,WeatherDisplay:10.37,2013-06-25 04:06:00,
2013-06-24 23:11:00,77.1,72.9,29.95,ENE,78,1.1,0.0,87,0.00,CLR,,0.00,WeatherDisplay:10.37,2013-06-25 04:11:00,
2013-06-24 23:16:00,77.0,72.8,29.95,East,92,0.0,0.0,87,0.00,CLR,,0.00,WeatherDisplay:10.37,2013-06-25 04:16:00,
2013-06-24 23:21:00,76.9,72.7,29.95,East,92,0.0,0.0,87,0.00,CLR,,0.00,WeatherDisplay:10.37,2013-06-25 04:21:00,
2013-06-24 23:26:00,76.9,72.7,29.95,East,92,0.0,0.0,87,0.00,CLR,,0.00,WeatherDisplay:10.37,2013-06-25 04:26:00,
2013-06-24 23:31:00,76.8,72.6,29.95,East,92,0.0,0.0,87,0.00,CLR,,0.00,WeatherDisplay:10.37,2013-06-25 04:31:00,
2013-06-24 23:36:00,76.7,72.5,29.95,ENE,59,0.0,0.0,87,0.00,CLR,,0.00,WeatherDisplay:10.37,2013-06-25 04:36:00,
2013-06-24 23:41:00,76.7,72.9,29.95,ENE,61,1.1,0.0,88,0.00,CLR,,0.00,WeatherDisplay:10.37,2013-06-25 04:41:00,
2013-06-24 23:46:00,76.7,72.9,29.95,ENE,61,0.0,0.0,88,0.00,CLR,,0.00,WeatherDisplay:10.37,2013-06-25 04:46:00,
2013-06-24 23:51:00,76.8,73.0,29.95,NW,319,0.0,0.0,88,0.00,CLR,,0.00,WeatherDisplay:10.37,2013-06-25 04:51:00,
2013-06-24 23:57:00,76.8,72.6,29.95,North,355,1.1,0.0,87,0.00,CLR,,0.00,WeatherDisplay:10.37,2013-06-25 04:57:00,